Location: Bron Breck
(40.6655°N, 111.8083°W)
Time: 01:59:35
(UTC+00:00)

N. Korean satellite - Pass Details

Date: 01 March 2021
Orbit: 453 x 499 km, 97.2° (Epoch: 11 April)

Event Time Altitude Azimuth Distance (km) Brightness Sun altitude
Rises 12:37:11 0° 16° (NNE) 2,516 10.5 -16.6°
Reaches altitude 10° 12:39:16 10° 21° (NNE) 1,642 9.6 -16.2°
Maximum altitude 12:42:44 53° 100° (E) 590 7.3 -15.6°
Drops below altitude 10° 12:46:13 10° 178° (S) 1,655 9.2 -14.9°
Sets 12:48:19 0° 183° (S) 2,538 10.2 -14.5°
